Location: Jarosław
(50.0191°N, 22.6835°E)
Time: 11:07:27
(UTC+02:00)

ISS - Pass Details

Date: 29 January 2019
Orbit: 411 x 421 km, 51.6° (Epoch: 16 October)

Event Time Altitude Azimuth Distance (km) Brightness Sun altitude
Rises 18:19:03 0° 269° (W) 2,372 1.7 -19.4°
Reaches altitude 10° 18:21:10 10° 273° (W) 1,509 0.3 -19.8°
Enters shadow 18:24:30 65° 351° (N) 470 -3.6 -20.3°
